Flag for Canada Weather past 2 weeks in Granby, Quebec, Canada

Now
66 °F

Mild.


Feels Like: 66 °F
Forecast: 58 / 70 °F
Wind: 3 mph from Southwest

Location: Frelighsburg

Current Time: May 28, 2015 at 10:25:30 AM

Latest Report: May 28, 2015 at 9:00 AM


Visibility: N/A

Pressure: 30.04 "Hg

Humidity: 94%

Dew point: 64 °F

Location of GranbyLocation

Historic Weather in Granby — Graph

°F

Granby temperature yesterday

Maximum temperature yesterday: 81 °F (at 12:00 PM)
Minimum temperature yesterday: 65 °F (at 12:00 AM)
Average temperature yesterday: 71 °F

Past Weeks' High & Low Weather Summary

 TemperatureHumidityPressure
High83 °F (May 26, 4:00 PM)100% (May 17, 6:00 AM)30.39 "Hg (May 17, 6:00 AM)
Low32 °F (May 23, 4:00 AM)22% (May 15, 2:00 PM)29.64 "Hg (May 19, 6:00 PM)
Average59 °F59%30.04 "Hg
* Reported May 13 9:00 AM — May 28 9:00 AM, Granby, Weather by CustomWeather, © 2015

Note: Actual official high and low records may vary slightly from our data, if they occured in-between our weather recording intervals... More about our weather records

Advertising

Granby weather history for previous 24 hours

 ConditionsComfort  
Time TempWeatherWind HumidityBarometerVisibility
9:00 AM
Thu, May 28
66 °FMild.3 mph94%30.04 "HgN/A
8:00 AM66 °FMild.3 mph94%30.03 "HgN/A
7:00 AM66 °FMild.3 mph94%30.01 "HgN/A
6:00 AM66 °FMild.3 mph94%30.00 "HgN/A
5:00 AM66 °FMild.5 mph93%29.98 "HgN/A
4:00 AM66 °FMild.5 mph94%29.97 "HgN/A
3:00 AM65 °FMild.5 mph95%29.97 "HgN/A
2:00 AM66 °FMild.6 mph95%29.96 "HgN/A
1:00 AM67 °FMild.6 mph88%29.96 "HgN/A
12:00 AM67 °FMild.6 mph95%29.97 "HgN/A
11:00 PM
Wed, May 27
67 °FMild.5 mph93%29.97 "HgN/A
10:00 PM68 °FMild.6 mph89%29.96 "HgN/A
9:00 PM69 °FMild.6 mph85%29.95 "HgN/A
8:00 PM71 °FMild.6 mph81%29.94 "HgN/A
7:00 PM74 °FMild.6 mph79%29.93 "HgN/A
6:00 PM75 °FMild.5 mph82%29.93 "HgN/A
5:00 PM73 °FMild.6 mph81%29.93 "HgN/A
4:00 PM72 °FMild.5 mph89%29.94 "HgN/A
3:00 PM70 °FMild.6 mph93%29.95 "HgN/A
2:00 PM71 °FMild.5 mph95%29.96 "HgN/A
1:00 PM79 °FWarm.6 mph63%29.94 "HgN/A
12:00 PM81 °FWarm.9 mph62%29.96 "HgN/A
11:00 AM78 °FWarm.6 mph66%29.98 "HgN/A
10:00 AM77 °FWarm.6 mph69%29.98 "HgN/A
Weather by CustomWeather, © 2015

See weather overviewHow to use our weather pages